Private Wetterstation Sandau
Wetterdaten: Freitag, 06.07.2012
Datum Zeit Temp. A. Feuchte A. Luftdruck Regen Wind Richtung Richtung Taupunkt Windchill
06.07.2012 00:01 20,6 C 86 % 1010,0 hPa 0,0 l/m 4,7 km/h (1 Bft) O-NO 67 18,2 C 20,6 C
06.07.2012 00:06 20,5 C 86 % 1010,1 hPa 0,0 l/m 5,4 km/h (1 Bft) O-NO 67 18,1 C 20,5 C
06.07.2012 00:11 20,5 C 86 % 1010,1 hPa 0,0 l/m 6,8 km/h (2 Bft) O 90 18,1 C 20,5 C
06.07.2012 00:16 20,4 C 86 % 1009,9 hPa 0,0 l/m 11,9 km/h (2 Bft) O-NO 67 18,0 C 20,4 C
06.07.2012 00:21 20,4 C 86 % 1009,9 hPa 0,0 l/m 7,2 km/h (2 Bft) O-NO 67 18,0 C 20,4 C
06.07.2012 00:26 20,4 C 86 % 1010,1 hPa 0,0 l/m 5,8 km/h (2 Bft) NO 45 18,0 C 20,4 C
06.07.2012 00:31 20,4 C 85 % 1010,1 hPa 0,0 l/m 7,6 km/h (2 Bft) NO 45 17,8 C 20,4 C
06.07.2012 00:36 20,3 C 85 % 1010,1 hPa 0,0 l/m 3,2 km/h (1 Bft) O-NO 67 17,7 C 20,3 C
06.07.2012 00:41 20,3 C 85 % 1010,1 hPa 0,0 l/m 0,0 km/h (0 Bft) N 360 17,7 C 20,3 C
06.07.2012 00:46 20,3 C 85 % 1009,9 hPa 0,0 l/m 9,4 km/h (2 Bft) O 90 17,7 C 20,3 C
06.07.2012 00:51 20,3 C 85 % 1009,9 hPa 0,0 l/m 5,8 km/h (2 Bft) NO 45 17,7 C 20,3 C
06.07.2012 00:56 20,2 C 85 % 1009,6 hPa 0,0 l/m 4,7 km/h (1 Bft) O-NO 67 17,6 C 20,2 C
06.07.2012 01:01 20,1 C 85 % 1009,4 hPa 0,0 l/m 5,4 km/h (1 Bft) NO 45 17,5 C 20,1 C
06.07.2012 01:06 20,0 C 86 % 1009,3 hPa 0,0 l/m 5,0 km/h (1 Bft) NO 45 17,6 C 20,0 C
06.07.2012 01:11 19,9 C 86 % 1009,3 hPa 0,0 l/m 11,5 km/h (2 Bft) NO 45 17,5 C 19,9 C
06.07.2012 01:16 19,9 C 86 % 1009,1 hPa 0,0 l/m 6,1 km/h (2 Bft) NO 45 17,5 C 19,9 C
06.07.2012 01:21 19,9 C 86 % 1009,1 hPa 0,0 l/m 4,3 km/h (1 Bft) N-NO 22 17,5 C 19,9 C
06.07.2012 01:26 19,9 C 86 % 1009,2 hPa 0,0 l/m 5,8 km/h (2 Bft) NO 45 17,5 C 19,9 C
06.07.2012 01:31 19,8 C 86 % 1009,3 hPa 0,0 l/m 4,3 km/h (1 Bft) NO 45 17,4 C 19,8 C
06.07.2012 01:36 19,8 C 86 % 1009,3 hPa 0,0 l/m 9,4 km/h (2 Bft) O 90 17,4 C 19,8 C
06.07.2012 01:41 19,8 C 86 % 1009,7 hPa 0,0 l/m 9,4 km/h (2 Bft) O-NO 67 17,4 C 19,8 C
06.07.2012 01:46 19,7 C 86 % 1009,8 hPa 0,0 l/m 4,3 km/h (1 Bft) O-NO 67 17,3 C 19,7 C
06.07.2012 01:51 19,6 C 86 % 1009,8 hPa 0,0 l/m 4,0 km/h (1 Bft) O-NO 67 17,2 C 19,6 C
06.07.2012 01:56 19,6 C 86 % 1009,4 hPa 0,0 l/m 5,4 km/h (1 Bft) O-NO 67 17,2 C 19,6 C
06.07.2012 02:01 19,6 C 86 % 1009,2 hPa 0,0 l/m 6,5 km/h (2 Bft) O-NO 67 17,2 C 19,6 C
06.07.2012 02:06 19,6 C 86 % 1009,4 hPa 0,0 l/m 6,8 km/h (2 Bft) NO 45 17,2 C 19,6 C
06.07.2012 02:11 19,6 C 86 % 1009,3 hPa 0,0 l/m 10,1 km/h (2 Bft) O-NO 67 17,2 C 19,6 C
06.07.2012 02:16 19,5 C 86 % 1009,3 hPa 0,0 l/m 10,1 km/h (2 Bft) NO 45 17,1 C 19,5 C
06.07.2012 02:21 19,5 C 86 % 1009,5 hPa 0,0 l/m 5,8 km/h (2 Bft) O-NO 67 17,1 C 19,5 C
06.07.2012 02:26 19,5 C 87 % 1009,4 hPa 0,0 l/m 3,6 km/h (1 Bft) O-NO 67 17,3 C 19,5 C
06.07.2012 02:31 19,4 C 87 % 1009,4 hPa 0,0 l/m 10,4 km/h (2 Bft) O-NO 67 17,2 C 19,4 C
06.07.2012 02:36 19,4 C 87 % 1009,4 hPa 0,0 l/m 7,6 km/h (2 Bft) NO 45 17,2 C 19,4 C
06.07.2012 02:41 19,3 C 87 % 1009,4 hPa 0,0 l/m 6,8 km/h (2 Bft) NO 45 17,1 C 19,3 C
06.07.2012 02:46 19,3 C 87 % 1009,3 hPa 0,0 l/m 7,6 km/h (2 Bft) NO 45 17,1 C 19,3 C
06.07.2012 02:51 19,3 C 87 % 1009,2 hPa 0,0 l/m 5,8 km/h (2 Bft) NO 45 17,1 C 19,3 C
06.07.2012 02:56 19,3 C 87 % 1009,2 hPa 0,0 l/m 11,2 km/h (2 Bft) NO 45 17,1 C 19,3 C
06.07.2012 03:01 19,3 C 88 % 1009,1 hPa 0,0 l/m 7,2 km/h (2 Bft) NO 45 17,3 C 19,3 C
06.07.2012 03:06 19,2 C 88 % 1009,0 hPa 0,0 l/m 5,8 km/h (2 Bft) NO 45 17,2 C 19,2 C
06.07.2012 03:11 19,2 C 88 % 1009,1 hPa 0,0 l/m 6,8 km/h (2 Bft) O-NO 67 17,2 C 19,2 C
06.07.2012 03:16 19,2 C 88 % 1009,2 hPa 0,0 l/m 5,4 km/h (1 Bft) O-NO 67 17,2 C 19,2 C
06.07.2012 03:21 19,2 C 88 % 1009,2 hPa 0,0 l/m 1,4 km/h (1 Bft) SO 135 17,2 C 19,2 C
06.07.2012 03:26 19,3 C 88 % 1009,2 hPa 0,0 l/m 3,6 km/h (1 Bft) NO 45 17,3 C 19,3 C
06.07.2012 03:31 19,3 C 88 % 1009,3 hPa 0,0 l/m 10,4 km/h (2 Bft) O-SO 112 17,3 C 19,3 C
06.07.2012 03:36 19,3 C 88 % 1009,2 hPa 0,0 l/m 2,5 km/h (1 Bft) S-SO 157 17,3 C 19,3 C
06.07.2012 03:41 19,3 C 88 % 1009,2 hPa 0,0 l/m 3,2 km/h (1 Bft) O-NO 67 17,3 C 19,3 C
06.07.2012 03:46 19,3 C 88 % 1009,1 hPa 0,0 l/m 1,4 km/h (1 Bft) O-NO 67 17,3 C 19,3 C
06.07.2012 03:51 19,3 C 88 % 1009,2 hPa 0,0 l/m 2,2 km/h (1 Bft) NO 45 17,3 C 19,3 C
06.07.2012 03:56 19,3 C 88 % 1009,1 hPa 0,0 l/m 0,0 km/h (0 Bft) O-NO 67 17,3 C 19,3 C
06.07.2012 04:01 19,3 C 88 % 1009,2 hPa 0,0 l/m 0,0 km/h (0 Bft) N-NO 22 17,3 C 19,3 C
06.07.2012 04:06 19,3 C 88 % 1009,1 hPa 0,0 l/m 3,6 km/h (1 Bft) N-NO 22 17,3 C 19,3 C
06.07.2012 04:11 19,3 C 88 % 1009,1 hPa 0,0 l/m 0,0 km/h (0 Bft) NO 45 17,3 C 19,3 C
06.07.2012 04:16 19,3 C 88 % 1009,0 hPa 0,0 l/m 4,3 km/h (1 Bft) NO 45 17,3 C 19,3 C
06.07.2012 04:21 19,3 C 88 % 1009,0 hPa 0,0 l/m 1,1 km/h (1 Bft) N 360 17,3 C 19,3 C
06.07.2012 04:26 19,3 C 88 % 1009,0 hPa 0,0 l/m 0,0 km/h (0 Bft) NW 315 17,3 C 19,3 C
06.07.2012 04:31 19,3 C 88 % 1009,0 hPa 0,0 l/m 2,2 km/h (1 Bft) N 360 17,3 C 19,3 C
06.07.2012 04:36 19,4 C 88 % 1009,1 hPa 0,0 l/m 3,2 km/h (1 Bft) N-NW 337 17,4 C 19,4 C
06.07.2012 04:41 19,4 C 88 % 1009,1 hPa 0,0 l/m 3,6 km/h (1 Bft) N 360 17,4 C 19,4 C
06.07.2012 04:46 19,3 C 88 % 1009,1 hPa 0,0 l/m 3,2 km/h (1 Bft) N-NO 22 17,3 C 19,3 C
06.07.2012 04:51 19,3 C 88 % 1009,1 hPa 0,0 l/m 4,0 km/h (1 Bft) N-NW 337 17,3 C 19,3 C
06.07.2012 04:56 19,2 C 88 % 1009,1 hPa 0,0 l/m 5,0 km/h (1 Bft) N 360 17,2 C 19,2 C
06.07.2012 05:01 19,2 C 88 % 1009,1 hPa 0,0 l/m 6,5 km/h (2 Bft) N 360 17,2 C 19,2 C
06.07.2012 05:06 19,1 C 88 % 1008,9 hPa 0,0 l/m 2,5 km/h (1 Bft) N-NO 22 17,1 C 19,1 C
06.07.2012 05:11 19,0 C 88 % 1009,0 hPa 0,0 l/m 4,7 km/h (1 Bft) NO 45 17,0 C 19,0 C
06.07.2012 05:16 18,9 C 88 % 1009,1 hPa 0,0 l/m 2,5 km/h (1 Bft) NO 45 16,9 C 18,9 C
06.07.2012 05:21 18,9 C 88 % 1009,1 hPa 0,0 l/m 0,0 km/h (0 Bft) N 360 16,9 C 18,9 C
06.07.2012 05:26 18,9 C 89 % 1009,2 hPa 0,0 l/m 0,0 km/h (0 Bft) O-NO 67 17,0 C 18,9 C
06.07.2012 05:31 19,0 C 89 % 1009,1 hPa 0,0 l/m 1,4 km/h (1 Bft) NO 45 17,1 C 19,0 C
06.07.2012 05:36 19,0 C 89 % 1009,1 hPa 0,0 l/m 1,4 km/h (1 Bft) N-NO 22 17,1 C 19,0 C
06.07.2012 05:41 18,9 C 89 % 1009,2 hPa 0,0 l/m 5,0 km/h (1 Bft) N-NO 22 17,0 C 18,9 C
06.07.2012 05:46 18,9 C 89 % 1009,2 hPa 0,0 l/m 5,8 km/h (2 Bft) N 360 17,0 C 18,9 C
06.07.2012 05:51 18,9 C 89 % 1009,3 hPa 0,0 l/m 0,0 km/h (0 Bft) N-NO 22 17,0 C 18,9 C
06.07.2012 05:56 18,8 C 89 % 1009,1 hPa 0,0 l/m 3,6 km/h (1 Bft) N 360 16,9 C 18,8 C
06.07.2012 06:01 18,8 C 89 % 1009,2 hPa 0,0 l/m 0,0 km/h (0 Bft) N 360 16,9 C 18,8 C
06.07.2012 06:06 18,8 C 89 % 1009,2 hPa 0,0 l/m 3,2 km/h (1 Bft) N-NO 22 16,9 C 18,8 C
06.07.2012 06:11 18,8 C 89 % 1009,2 hPa 0,0 l/m 0,0 km/h (0 Bft) O-NO 67 16,9 C 18,8 C
06.07.2012 06:16 18,9 C 89 % 1009,2 hPa 0,0 l/m 2,9 km/h (1 Bft) N 360 17,0 C 18,9 C
06.07.2012 06:21 18,9 C 89 % 1009,1 hPa 0,0 l/m 1,8 km/h (1 Bft) NO 45 17,0 C 18,9 C
06.07.2012 06:26 18,9 C 89 % 1009,0 hPa 0,0 l/m 3,2 km/h (1 Bft) O-NO 67 17,0 C 18,9 C
06.07.2012 06:31 18,9 C 89 % 1008,9 hPa 0,0 l/m 3,6 km/h (1 Bft) N-NO 22 17,0 C 18,9 C
06.07.2012 06:36 18,9 C 89 % 1008,9 hPa 0,0 l/m 5,8 km/h (2 Bft) N-NW 337 17,0 C 18,9 C
06.07.2012 06:41 18,9 C 89 % 1008,8 hPa 0,0 l/m 4,0 km/h (1 Bft) N 360 17,0 C 18,9 C
06.07.2012 06:46 18,9 C 89 % 1008,9 hPa 0,0 l/m 4,0 km/h (1 Bft) N-NO 22 17,0 C 18,9 C
06.07.2012 06:51 18,9 C 89 % 1008,9 hPa 0,0 l/m 2,9 km/h (1 Bft) N-NO 22 17,0 C 18,9 C
06.07.2012 06:56 18,9 C 89 % 1009,1 hPa 0,0 l/m 3,6 km/h (1 Bft) N 360 17,0 C 18,9 C
06.07.2012 07:01 18,9 C 89 % 1008,9 hPa 0,0 l/m 0,0 km/h (0 Bft) N-NO 22 17,0 C 18,9 C
06.07.2012 07:06 18,9 C 89 % 1009,1 hPa 0,0 l/m 2,9 km/h (1 Bft) N-NO 22 17,0 C 18,9 C
06.07.2012 07:11 19,0 C 89 % 1009,1 hPa 0,0 l/m 0,0 km/h (0 Bft) NO 45 17,1 C 19,0 C
06.07.2012 07:16 19,1 C 89 % 1009,2 hPa 0,0 l/m 0,0 km/h (0 Bft) O-NO 67 17,2 C 19,1 C
06.07.2012 07:21 19,1 C 89 % 1009,3 hPa 0,0 l/m 0,0 km/h (0 Bft) N-NO 22 17,2 C 19,1 C
06.07.2012 07:26 19,1 C 89 % 1009,1 hPa 0,0 l/m 0,0 km/h (0 Bft) O-NO 67 17,2 C 19,1 C
06.07.2012 07:31 19,1 C 89 % 1009,3 hPa 0,0 l/m 0,0 km/h (0 Bft) N-NO 22 17,2 C 19,1 C
06.07.2012 07:36 19,2 C 89 % 1009,2 hPa 0,0 l/m 0,0 km/h (0 Bft) N-NO 22 17,3 C 19,2 C
06.07.2012 07:41 19,2 C 89 % 1009,2 hPa 0,0 l/m 0,0 km/h (0 Bft) N-NO 22 17,3 C 19,2 C
06.07.2012 07:46 19,3 C 89 % 1009,3 hPa 0,0 l/m 0,0 km/h (0 Bft) N-NO 22 17,4 C 19,3 C
06.07.2012 07:51 19,4 C 88 % 1009,4 hPa 0,0 l/m 0,0 km/h (0 Bft) N-NO 22 17,4 C 19,4 C
06.07.2012 07:56 19,5 C 88 % 1009,3 hPa 0,0 l/m 0,0 km/h (0 Bft) N-NO 22 17,5 C 19,5 C
06.07.2012 08:01 19,6 C 88 % 1009,3 hPa 0,0 l/m 0,0 km/h (0 Bft) SO 135 17,6 C 19,6 C
06.07.2012 08:06 19,6 C 88 % 1009,3 hPa 0,0 l/m 0,0 km/h (0 Bft) SO 135 17,6 C 19,6 C
06.07.2012 08:11 19,6 C 88 % 1009,3 hPa 0,0 l/m 3,2 km/h (1 Bft) O-SO 112 17,6 C 19,6 C
06.07.2012 08:16 19,6 C 88 % 1009,3 hPa 0,0 l/m 4,0 km/h (1 Bft) S-SO 157 17,6 C 19,6 C
06.07.2012 08:21 19,8 C 88 % 1009,4 hPa 0,0 l/m 0,0 km/h (0 Bft) SO 135 17,8 C 19,8 C
06.07.2012 08:26 19,9 C 88 % 1009,3 hPa 0,0 l/m 0,0 km/h (0 Bft) S-SO 157 17,8 C 19,9 C
06.07.2012 08:31 19,8 C 88 % 1009,6 hPa 0,0 l/m 1,1 km/h (1 Bft) S-SO 157 17,8 C 19,8 C
06.07.2012 08:36 19,9 C 88 % 1009,7 hPa 0,0 l/m 0,0 km/h (0 Bft) S-SO 157 17,8 C 19,9 C
06.07.2012 08:41 20,1 C 87 % 1009,7 hPa 0,0 l/m 0,0 km/h (0 Bft) S 180 17,9 C 20,1 C
06.07.2012 08:46 20,2 C 87 % 1009,9 hPa 0,0 l/m 2,2 km/h (1 Bft) S 180 18,0 C 20,2 C
06.07.2012 08:51 20,4 C 87 % 1009,7 hPa 0,0 l/m 3,2 km/h (1 Bft) SW 225 18,2 C 20,4 C
06.07.2012 08:56 20,5 C 87 % 1009,7 hPa 0,0 l/m 4,0 km/h (1 Bft) S 180 18,3 C 20,5 C
06.07.2012 09:01 20,7 C 86 % 1009,8 hPa 0,0 l/m 3,6 km/h (1 Bft) SW 225 18,3 C 20,7 C
06.07.2012 09:06 20,8 C 86 % 1009,8 hPa 0,0 l/m 5,8 km/h (2 Bft) SW 225 18,4 C 20,8 C
06.07.2012 09:11 20,9 C 86 % 1009,8 hPa 0,0 l/m 5,8 km/h (2 Bft) SW 225 18,5 C 20,9 C
06.07.2012 09:16 21,0 C 85 % 1009,9 hPa 0,0 l/m 9,7 km/h (2 Bft) SW 225 18,4 C 21,0 C
06.07.2012 09:21 21,0 C 85 % 1009,8 hPa 0,0 l/m 4,0 km/h (1 Bft) W-SW 247 18,4 C 21,0 C
06.07.2012 09:26 21,1 C 85 % 1009,8 hPa 0,0 l/m 7,9 km/h (2 Bft) S 180 18,5 C 21,1 C
06.07.2012 09:31 21,1 C 84 % 1010,0 hPa 0,0 l/m 2,5 km/h (1 Bft) S-SW 202 18,3 C 21,1 C
06.07.2012 09:36 21,2 C 84 % 1010,1 hPa 0,0 l/m 5,4 km/h (1 Bft) W-SW 247 18,4 C 21,2 C
06.07.2012 09:41 21,1 C 84 % 1010,2 hPa 0,0 l/m 9,4 km/h (2 Bft) SW 225 18,3 C 21,1 C
06.07.2012 09:46 21,2 C 84 % 1010,3 hPa 0,0 l/m 6,5 km/h (2 Bft) SW 225 18,4 C 21,2 C
06.07.2012 09:51 21,2 C 84 % 1010,2 hPa 0,0 l/m 2,2 km/h (1 Bft) W-SW 247 18,4 C 21,2 C
06.07.2012 09:56 21,2 C 84 % 1010,3 hPa 0,0 l/m 8,3 km/h (2 Bft) SW 225 18,4 C 21,2 C
06.07.2012 10:01 21,3 C 84 % 1010,4 hPa 0,0 l/m 7,2 km/h (2 Bft) S 180 18,5 C 21,3 C
06.07.2012 10:06 21,4 C 83 % 1010,3 hPa 0,0 l/m 4,7 km/h (1 Bft) W-SW 247 18,4 C 21,4 C
06.07.2012 10:11 21,6 C 83 % 1010,4 hPa 0,0 l/m 4,0 km/h (1 Bft) W-NW 292 18,6 C 21,6 C
06.07.2012 10:16 21,6 C 83 % 1010,3 hPa 0,0 l/m 12,2 km/h (2 Bft) W-SW 247 18,6 C 21,6 C
06.07.2012 10:21 21,6 C 83 % 1010,3 hPa 0,0 l/m 10,8 km/h (2 Bft) W-SW 247 18,6 C 21,6 C
06.07.2012 10:26 21,8 C 82 % 1010,4 hPa 0,0 l/m 1,8 km/h (1 Bft) S-SW 202 18,6 C 21,8 C
06.07.2012 10:31 21,9 C 82 % 1010,6 hPa 0,0 l/m 2,5 km/h (1 Bft) SW 225 18,7 C 21,9 C
06.07.2012 10:36 22,1 C 82 % 1010,5 hPa 0,0 l/m 0,0 km/h (0 Bft) W 270 18,9 C 22,1 C
06.07.2012 10:41 22,3 C 81 % 1010,4 hPa 0,0 l/m 2,2 km/h (1 Bft) SO 135 18,9 C 22,3 C
06.07.2012 10:46 22,5 C 80 % 1010,4 hPa 0,0 l/m 6,1 km/h (2 Bft) W-SW 247 18,9 C 22,5 C
06.07.2012 10:51 22,8 C 80 % 1010,2 hPa 0,0 l/m 5,0 km/h (1 Bft) NW 315 19,2 C 22,8 C
06.07.2012 10:56 22,9 C 79 % 1010,3 hPa 0,0 l/m 7,6 km/h (2 Bft) SW 225 19,1 C 22,9 C
06.07.2012 11:01 23,1 C 78 % 1010,3 hPa 0,0 l/m 4,0 km/h (1 Bft) W 270 19,0 C 23,1 C
06.07.2012 11:06 23,3 C 78 % 1010,4 hPa 0,0 l/m 2,5 km/h (1 Bft) SW 225 19,2 C 23,3 C
06.07.2012 11:11 23,6 C 77 % 1010,4 hPa 0,0 l/m 2,5 km/h (1 Bft) W-SW 247 19,3 C 23,6 C
06.07.2012 11:16 23,9 C 76 % 1010,6 hPa 0,0 l/m 4,7 km/h (1 Bft) W-SW 247 19,4 C 23,9 C
06.07.2012 11:21 24,1 C 76 % 1010,7 hPa 0,0 l/m 5,8 km/h (2 Bft) NW 315 19,6 C 24,1 C
06.07.2012 11:26 24,1 C 74 % 1010,6 hPa 0,0 l/m 7,2 km/h (2 Bft) NW 315 19,2 C 24,1 C
06.07.2012 11:31 24,1 C 74 % 1010,7 hPa 0,0 l/m 3,2 km/h (1 Bft) W 270 19,2 C 24,1 C
06.07.2012 11:36 24,1 C 74 % 1010,6 hPa 0,0 l/m 2,5 km/h (1 Bft) NO 45 19,2 C 24,1 C
06.07.2012 11:41 23,9 C 75 % 1010,6 hPa 0,0 l/m 0,0 km/h (0 Bft) N-NW 337 19,2 C 23,9 C
06.07.2012 11:46 24,1 C 74 % 1010,6 hPa 0,0 l/m 1,8 km/h (1 Bft) W-SW 247 19,2 C 24,1 C
06.07.2012 11:51 24,4 C 74 % 1010,8 hPa 0,0 l/m 0,0 km/h (0 Bft) W 270 19,5 C 24,4 C
06.07.2012 11:56 24,6 C 73 % 1010,8 hPa 0,0 l/m 0,0 km/h (0 Bft) S 180 19,4 C 24,6 C
06.07.2012 12:01 24,9 C 73 % 1010,8 hPa 0,0 l/m 1,4 km/h (1 Bft) SW 225 19,7 C 24,9 C
06.07.2012 12:06 25,2 C 72 % 1010,6 hPa 0,0 l/m 2,5 km/h (1 Bft) S 180 19,8 C 25,2 C
06.07.2012 12:11 25,5 C 71 % 1010,5 hPa 0,0 l/m 0,0 km/h (0 Bft) S-SW 202 19,8 C 25,5 C
06.07.2012 12:16 25,6 C 70 % 1010,6 hPa 0,0 l/m 11,2 km/h (2 Bft) SW 225 19,7 C 25,6 C
06.07.2012 12:21 25,9 C 70 % 1010,7 hPa 0,0 l/m 0,0 km/h (0 Bft) W-NW 292 20,0 C 25,9 C
06.07.2012 12:26 25,9 C 69 % 1010,8 hPa 0,0 l/m 5,8 km/h (2 Bft) S-SW 202 19,8 C 25,9 C
06.07.2012 12:31 26,1 C 68 % 1010,7 hPa 0,0 l/m 11,2 km/h (2 Bft) SW 225 19,7 C 26,1 C
06.07.2012 12:36 26,0 C 68 % 1010,7 hPa 0,0 l/m 0,0 km/h (0 Bft) S-SW 202 19,6 C 26,0 C
06.07.2012 12:41 25,9 C 68 % 1010,8 hPa 0,0 l/m 0,0 km/h (0 Bft) S-SW 202 19,5 C 25,9 C
06.07.2012 12:46 25,8 C 68 % 1010,8 hPa 0,0 l/m 2,5 km/h (1 Bft) W-NW 292 19,4 C 25,8 C
06.07.2012 12:51 25,7 C 68 % 1010,8 hPa 0,0 l/m 4,7 km/h (1 Bft) W-SW 247 19,3 C 25,7 C
06.07.2012 12:56 25,9 C 69 % 1010,8 hPa 0,0 l/m 4,0 km/h (1 Bft) S 180 19,8 C 25,9 C
06.07.2012 13:01 26,4 C 67 % 1010,8 hPa 0,0 l/m 6,5 km/h (2 Bft) S-SW 202 19,8 C 26,4 C
06.07.2012 13:06 26,5 C 66 % 1010,8 hPa 0,0 l/m 6,1 km/h (2 Bft) S-SO 157 19,6 C 26,5 C
06.07.2012 13:11 26,9 C 67 % 1010,9 hPa 0,0 l/m 4,0 km/h (1 Bft) S-SW 202 20,2 C 26,9 C
06.07.2012 13:16 27,3 C 65 % 1010,8 hPa 0,0 l/m 4,3 km/h (1 Bft) S 180 20,1 C 27,3 C
06.07.2012 13:21 27,2 C 65 % 1010,7 hPa 0,0 l/m 6,1 km/h (2 Bft) S-SO 157 20,0 C 27,2 C
06.07.2012 13:26 27,3 C 64 % 1010,9 hPa 0,0 l/m 3,6 km/h (1 Bft) S-SW 202 19,9 C 27,3 C
06.07.2012 13:31 27,1 C 63 % 1010,8 hPa 0,0 l/m 4,3 km/h (1 Bft) NW 315 19,4 C 27,1 C
06.07.2012 13:36 27,3 C 64 % 1010,7 hPa 0,0 l/m 9,4 km/h (2 Bft) S-SW 202 19,9 C 27,3 C
06.07.2012 13:41 27,5 C 64 % 1010,7 hPa 0,0 l/m 8,3 km/h (2 Bft) S 180 20,1 C 27,5 C
06.07.2012 13:46 27,6 C 63 % 1010,8 hPa 0,0 l/m 6,1 km/h (2 Bft) SW 225 19,9 C 27,6 C
06.07.2012 13:51 27,5 C 63 % 1010,9 hPa 0,0 l/m 2,5 km/h (1 Bft) S-SO 157 19,8 C 27,5 C
06.07.2012 13:56 27,8 C 63 % 1010,8 hPa 0,0 l/m 10,1 km/h (2 Bft) S 180 20,1 C 27,8 C
06.07.2012 14:01 28,1 C 62 % 1010,8 hPa 0,0 l/m 2,5 km/h (1 Bft) S-SO 157 20,1 C 28,1 C
06.07.2012 14:06 28,3 C 61 % 1010,7 hPa 0,0 l/m 0,0 km/h (0 Bft) S-SW 202 20,0 C 28,3 C
06.07.2012 14:11 28,4 C 61 % 1010,7 hPa 0,0 l/m 2,2 km/h (1 Bft) SO 135 20,1 C 28,4 C
06.07.2012 14:16 28,6 C 61 % 1010,8 hPa 0,0 l/m 3,6 km/h (1 Bft) S 180 20,3 C 28,6 C
06.07.2012 14:21 28,8 C 60 % 1010,6 hPa 0,0 l/m 7,6 km/h (2 Bft) SO 135 20,2 C 28,8 C
06.07.2012 14:26 28,8 C 59 % 1010,9 hPa 0,0 l/m 6,1 km/h (2 Bft) S-SW 202 20,0 C 28,8 C
06.07.2012 14:31 28,8 C 59 % 1010,8 hPa 0,0 l/m 6,5 km/h (2 Bft) S 180 20,0 C 28,8 C
06.07.2012 14:36 28,9 C 58 % 1010,9 hPa 0,0 l/m 5,8 km/h (2 Bft) S-SO 157 19,8 C 28,9 C
06.07.2012 14:41 28,8 C 58 % 1011,1 hPa 0,0 l/m 2,2 km/h (1 Bft) S-SO 157 19,7 C 28,8 C
06.07.2012 14:46 28,7 C 59 % 1011,3 hPa 0,0 l/m 5,8 km/h (2 Bft) S-SW 202 19,9 C 28,7 C
06.07.2012 14:51 28,6 C 58 % 1011,1 hPa 0,0 l/m 6,1 km/h (2 Bft) SW 225 19,5 C 28,6 C
06.07.2012 14:56 28,7 C 59 % 1011,1 hPa 0,0 l/m 5,4 km/h (1 Bft) S-SW 202 19,9 C 28,7 C
06.07.2012 15:01 28,6 C 58 % 1011,0 hPa 0,0 l/m 3,6 km/h (1 Bft) S 180 19,5 C 28,6 C
06.07.2012 15:06 28,7 C 58 % 1011,1 hPa 0,0 l/m 4,0 km/h (1 Bft) S 180 19,6 C 28,7 C
06.07.2012 15:11 28,9 C 58 % 1011,0 hPa 0,0 l/m 8,6 km/h (2 Bft) S-SW 202 19,8 C 28,9 C
06.07.2012 15:16 29,2 C 57 % 1011,0 hPa 0,0 l/m 4,7 km/h (1 Bft) SO 135 19,8 C 29,2 C
06.07.2012 15:21 29,2 C 57 % 1011,0 hPa 0,0 l/m 3,2 km/h (1 Bft) S 180 19,8 C 29,2 C
06.07.2012 15:26 29,1 C 57 % 1011,0 hPa 0,0 l/m 7,2 km/h (2 Bft) S-SO 157 19,7 C 29,1 C
06.07.2012 15:31 29,1 C 57 % 1011,0 hPa 0,0 l/m 4,0 km/h (1 Bft) S 180 19,7 C 29,1 C
06.07.2012 15:36 29,3 C 56 % 1011,0 hPa 0,0 l/m 6,8 km/h (2 Bft) S 180 19,6 C 29,3 C
06.07.2012 15:41 29,5 C 56 % 1010,9 hPa 0,0 l/m 3,2 km/h (1 Bft) SO 135 19,8 C 29,5 C
06.07.2012 15:46 29,5 C 55 % 1010,9 hPa 0,0 l/m 3,2 km/h (1 Bft) S-SO 157 19,5 C 29,5 C
06.07.2012 15:51 29,4 C 55 % 1011,0 hPa 0,0 l/m 8,6 km/h (2 Bft) S-SW 202 19,4 C 29,4 C
06.07.2012 15:56 29,1 C 55 % 1010,9 hPa 0,0 l/m 7,2 km/h (2 Bft) S 180 19,1 C 29,1 C
06.07.2012 16:01 28,8 C 56 % 1010,9 hPa 0,0 l/m 3,6 km/h (1 Bft) S-SO 157 19,1 C 28,8 C
06.07.2012 16:06 28,6 C 57 % 1010,8 hPa 0,0 l/m 5,8 km/h (2 Bft) W-SW 247 19,2 C 28,6 C
06.07.2012 16:11 28,5 C 57 % 1010,9 hPa 0,0 l/m 8,3 km/h (2 Bft) S-SW 202 19,1 C 28,5 C
06.07.2012 16:16 28,5 C 57 % 1011,1 hPa 0,0 l/m 4,3 km/h (1 Bft) S 180 19,1 C 28,5 C
06.07.2012 16:21 28,5 C 57 % 1011,3 hPa 0,0 l/m 3,6 km/h (1 Bft) S-SO 157 19,1 C 28,5 C
06.07.2012 16:26 28,7 C 57 % 1011,2 hPa 0,0 l/m 5,8 km/h (2 Bft) S 180 19,3 C 28,7 C
06.07.2012 16:31 29,0 C 56 % 1011,3 hPa 0,0 l/m 3,6 km/h (1 Bft) SO 135 19,3 C 29,0 C
06.07.2012 16:36 29,3 C 55 % 1011,3 hPa 0,0 l/m 18,7 km/h (3 Bft) W-SW 247 19,3 C 29,3 C
06.07.2012 16:41 29,4 C 55 % 1011,3 hPa 0,0 l/m 6,5 km/h (2 Bft) SW 225 19,4 C 29,4 C
06.07.2012 16:46 29,4 C 54 % 1011,3 hPa 0,0 l/m 7,2 km/h (2 Bft) SW 225 19,1 C 29,4 C
06.07.2012 16:51 29,1 C 54 % 1011,3 hPa 0,0 l/m 4,0 km/h (1 Bft) S-SW 202 18,8 C 29,1 C
06.07.2012 16:56 28,6 C 55 % 1011,7 hPa 0,0 l/m 20,9 km/h (4 Bft) W-NW 292 18,7 C 28,6 C
06.07.2012 17:01 27,4 C 53 % 1011,8 hPa 0,0 l/m 25,2 km/h (4 Bft) W-NW 292 17,0 C 27,4 C
06.07.2012 17:06 26,4 C 54 % 1011,9 hPa 0,0 l/m 15,8 km/h (3 Bft) N-NW 337 16,3 C 26,4 C
06.07.2012 17:11 25,8 C 56 % 1011,8 hPa 0,0 l/m 9,0 km/h (2 Bft) W 270 16,3 C 25,8 C
06.07.2012 17:16 25,3 C 57 % 1011,7 hPa 0,0 l/m 4,0 km/h (1 Bft) W 270 16,2 C 25,3 C
06.07.2012 17:21 25,2 C 58 % 1011,6 hPa 0,0 l/m 0,0 km/h (0 Bft) N 360 16,3 C 25,2 C
06.07.2012 17:26 25,2 C 58 % 1011,5 hPa 0,0 l/m 3,6 km/h (1 Bft) W-NW 292 16,3 C 25,2 C
06.07.2012 17:31 25,3 C 57 % 1011,3 hPa 0,0 l/m 2,5 km/h (1 Bft) W-NW 292 16,2 C 25,3 C
06.07.2012 17:36 25,5 C 58 % 1011,6 hPa 0,0 l/m 5,0 km/h (1 Bft) N-NW 337 16,6 C 25,5 C
06.07.2012 17:41 25,4 C 58 % 1011,5 hPa 0,0 l/m 7,6 km/h (2 Bft) NW 315 16,5 C 25,4 C
06.07.2012 17:46 25,5 C 58 % 1011,3 hPa 0,0 l/m 2,9 km/h (1 Bft) N-NO 22 16,6 C 25,5 C
06.07.2012 17:51 25,4 C 58 % 1011,5 hPa 0,0 l/m 3,2 km/h (1 Bft) N 360 16,5 C 25,4 C
06.07.2012 17:56 25,3 C 58 % 1011,6 hPa 0,0 l/m 2,2 km/h (1 Bft) N-NO 22 16,4 C 25,3 C
06.07.2012 18:01 25,2 C 59 % 1011,7 hPa 0,0 l/m 3,2 km/h (1 Bft) N-NW 337 16,6 C 25,2 C
06.07.2012 18:06 25,0 C 59 % 1011,9 hPa 0,0 l/m 2,2 km/h (1 Bft) W-SW 247 16,4 C 25,0 C
06.07.2012 18:11 24,9 C 61 % 1011,8 hPa 0,0 l/m 1,4 km/h (1 Bft) W 270 16,8 C 24,9 C
06.07.2012 18:16 25,0 C 61 % 1012,0 hPa 0,0 l/m 1,4 km/h (1 Bft) W 270 16,9 C 25,0 C
06.07.2012 18:21 25,0 C 61 % 1012,0 hPa 0,0 l/m 2,5 km/h (1 Bft) NW 315 16,9 C 25,0 C
06.07.2012 18:26 24,9 C 61 % 1011,7 hPa 0,0 l/m 2,2 km/h (1 Bft) NW 315 16,8 C 24,9 C
06.07.2012 18:31 24,8 C 61 % 1011,7 hPa 0,0 l/m 0,0 km/h (0 Bft) N 360 16,8 C 24,8 C
06.07.2012 18:36 24,6 C 62 % 1012,0 hPa 0,0 l/m 0,0 km/h (0 Bft) N 360 16,8 C 24,6 C
06.07.2012 18:41 24,5 C 63 % 1012,3 hPa 0,0 l/m 0,0 km/h (0 Bft) W 270 17,0 C 24,5 C
06.07.2012 18:46 24,4 C 64 % 1012,1 hPa 0,0 l/m 0,0 km/h (0 Bft) NW 315 17,1 C 24,4 C
06.07.2012 18:51 24,3 C 64 % 1012,1 hPa 0,0 l/m 3,6 km/h (1 Bft) W 270 17,0 C 24,3 C
06.07.2012 18:56 24,3 C 66 % 1012,0 hPa 0,0 l/m 2,2 km/h (1 Bft) W 270 17,5 C 24,3 C
06.07.2012 19:01 24,1 C 66 % 1011,9 hPa 0,0 l/m 0,0 km/h (0 Bft) W 270 17,3 C 24,1 C
06.07.2012 19:06 23,9 C 67 % 1012,0 hPa 0,0 l/m 0,0 km/h (0 Bft) W 270 17,4 C 23,9 C
06.07.2012 19:11 23,8 C 68 % 1011,8 hPa 0,0 l/m 2,5 km/h (1 Bft) W-NW 292 17,5 C 23,8 C
06.07.2012 19:16 23,8 C 70 % 1011,8 hPa 0,0 l/m 0,0 km/h (0 Bft) NW 315 18,0 C 23,8 C
06.07.2012 19:21 23,8 C 70 % 1011,9 hPa 0,0 l/m 0,0 km/h (0 Bft) W-NW 292 18,0 C 23,8 C
06.07.2012 19:26 23,6 C 71 % 1012,0 hPa 0,0 l/m 0,0 km/h (0 Bft) W-NW 292 18,0 C 23,6 C
06.07.2012 19:31 23,4 C 71 % 1012,0 hPa 0,0 l/m 0,0 km/h (0 Bft) W-NW 292 17,8 C 23,4 C
06.07.2012 19:36 23,4 C 72 % 1012,0 hPa 0,0 l/m 4,0 km/h (1 Bft) SW 225 18,1 C 23,4 C
06.07.2012 19:41 23,3 C 72 % 1012,1 hPa 0,0 l/m 0,0 km/h (0 Bft) SW 225 18,0 C 23,3 C
06.07.2012 19:46 23,2 C 73 % 1012,1 hPa 0,0 l/m 0,0 km/h (0 Bft) S 180 18,1 C 23,2 C
06.07.2012 19:51 23,2 C 73 % 1012,2 hPa 0,0 l/m 0,0 km/h (0 Bft) S-SO 157 18,1 C 23,2 C
06.07.2012 19:56 23,1 C 74 % 1012,3 hPa 0,0 l/m 3,6 km/h (1 Bft) S-SO 157 18,2 C 23,1 C
06.07.2012 20:01 23,3 C 74 % 1012,3 hPa 0,0 l/m 1,4 km/h (1 Bft) S 180 18,4 C 23,3 C
06.07.2012 20:06 23,4 C 74 % 1012,2 hPa 0,0 l/m 2,5 km/h (1 Bft) S-SO 157 18,5 C 23,4 C
06.07.2012 20:11 23,4 C 74 % 1012,3 hPa 0,0 l/m 0,0 km/h (0 Bft) S-SO 157 18,5 C 23,4 C
06.07.2012 20:16 23,5 C 74 % 1012,2 hPa 0,0 l/m 2,9 km/h (1 Bft) S-SO 157 18,6 C 23,5 C
06.07.2012 20:21 23,6 C 73 % 1012,5 hPa 0,0 l/m 1,1 km/h (1 Bft) S-SO 157 18,5 C 23,6 C
06.07.2012 20:26 23,6 C 73 % 1012,4 hPa 0,0 l/m 0,0 km/h (0 Bft) S-SO 157 18,5 C 23,6 C
06.07.2012 20:31 23,5 C 73 % 1012,3 hPa 0,0 l/m 1,4 km/h (1 Bft) S 180 18,4 C 23,5 C
06.07.2012 20:36 23,5 C 73 % 1012,4 hPa 0,0 l/m 1,8 km/h (1 Bft) S 180 18,4 C 23,5 C
06.07.2012 20:41 23,4 C 73 % 1012,4 hPa 0,0 l/m 0,0 km/h (0 Bft) S 180 18,3 C 23,4 C
06.07.2012 20:46 23,4 C 73 % 1012,3 hPa 0,0 l/m 0,0 km/h (0 Bft) SO 135 18,3 C 23,4 C
06.07.2012 20:51 23,3 C 73 % 1012,4 hPa 0,0 l/m 0,0 km/h (0 Bft) SO 135 18,2 C 23,3 C
06.07.2012 20:56 23,3 C 73 % 1012,4 hPa 0,0 l/m 0,0 km/h (0 Bft) SO 135 18,2 C 23,3 C
06.07.2012 21:01 23,3 C 74 % 1012,2 hPa 0,0 l/m 2,2 km/h (1 Bft) SO 135 18,4 C 23,3 C
06.07.2012 21:06 23,2 C 74 % 1012,4 hPa 0,0 l/m 4,0 km/h (1 Bft) SO 135 18,3 C 23,2 C
06.07.2012 21:11 23,1 C 74 % 1012,3 hPa 0,0 l/m 0,0 km/h (0 Bft) SO 135 18,2 C 23,1 C
06.07.2012 21:16 23,0 C 74 % 1012,3 hPa 0,0 l/m 0,0 km/h (0 Bft) SO 135 18,1 C 23,0 C
06.07.2012 21:21 22,9 C 75 % 1012,3 hPa 0,0 l/m 0,0 km/h (0 Bft) SO 135 18,2 C 22,9 C
06.07.2012 21:26 22,8 C 75 % 1012,5 hPa 0,0 l/m 1,1 km/h (1 Bft) SO 135 18,1 C 22,8 C
06.07.2012 21:31 22,7 C 76 % 1012,5 hPa 0,0 l/m 2,5 km/h (1 Bft) O-SO 112 18,2 C 22,7 C
06.07.2012 21:36 22,5 C 77 % 1012,6 hPa 0,0 l/m 3,6 km/h (1 Bft) O-NO 67 18,3 C 22,5 C
06.07.2012 21:41 22,3 C 77 % 1012,6 hPa 0,0 l/m 2,2 km/h (1 Bft) O-NO 67 18,1 C 22,3 C
06.07.2012 21:46 22,3 C 77 % 1012,7 hPa 0,0 l/m 0,0 km/h (0 Bft) NO 45 18,1 C 22,3 C
06.07.2012 21:51 22,1 C 77 % 1012,7 hPa 0,0 l/m 0,0 km/h (0 Bft) NO 45 17,9 C 22,1 C
06.07.2012 21:56 22,1 C 77 % 1012,7 hPa 0,0 l/m 0,0 km/h (0 Bft) NO 45 17,9 C 22,1 C
06.07.2012 22:01 22,1 C 78 % 1012,8 hPa 0,0 l/m 0,0 km/h (0 Bft) O-NO 67 18,1 C 22,1 C
06.07.2012 22:06 22,1 C 78 % 1012,9 hPa 0,0 l/m 0,0 km/h (0 Bft) O-NO 67 18,1 C 22,1 C
06.07.2012 22:11 22,1 C 78 % 1013,1 hPa 0,0 l/m 1,1 km/h (1 Bft) O-NO 67 18,1 C 22,1 C
06.07.2012 22:16 22,0 C 78 % 1013,1 hPa 0,0 l/m 1,4 km/h (1 Bft) SO 135 18,0 C 22,0 C
06.07.2012 22:21 22,0 C 78 % 1013,0 hPa 0,0 l/m 0,0 km/h (0 Bft) SO 135 18,0 C 22,0 C
06.07.2012 22:26 22,0 C 78 % 1013,0 hPa 0,0 l/m 0,0 km/h (0 Bft) SO 135 18,0 C 22,0 C
06.07.2012 22:31 21,9 C 78 % 1012,9 hPa 0,0 l/m 2,2 km/h (1 Bft) SO 135 17,9 C 21,9 C
06.07.2012 22:36 21,9 C 78 % 1012,8 hPa 0,0 l/m 3,2 km/h (1 Bft) SO 135 17,9 C 21,9 C
06.07.2012 22:41 21,9 C 78 % 1012,7 hPa 0,0 l/m 0,0 km/h (0 Bft) SO 135 17,9 C 21,9 C
06.07.2012 22:46 21,9 C 78 % 1012,7 hPa 0,0 l/m 0,0 km/h (0 Bft) SO 135 17,9 C 21,9 C
06.07.2012 22:51 21,9 C 78 % 1012,8 hPa 0,0 l/m 1,4 km/h (1 Bft) SO 135 17,9 C 21,9 C
06.07.2012 22:56 21,9 C 78 % 1012,8 hPa 0,0 l/m 0,0 km/h (0 Bft) SO 135 17,9 C 21,9 C
06.07.2012 23:01 21,9 C 78 % 1012,9 hPa 0,0 l/m 0,0 km/h (0 Bft) SO 135 17,9 C 21,9 C
06.07.2012 23:06 21,9 C 77 % 1012,8 hPa 0,0 l/m 2,2 km/h (1 Bft) SO 135 17,7 C 21,9 C
06.07.2012 23:11 21,9 C 78 % 1012,7 hPa 0,0 l/m 1,4 km/h (1 Bft) SO 135 17,9 C 21,9 C
06.07.2012 23:16 21,9 C 78 % 1012,6 hPa 0,0 l/m 0,0 km/h (0 Bft) SO 135 17,9 C 21,9 C
06.07.2012 23:21 21,8 C 78 % 1012,5 hPa 0,0 l/m 0,0 km/h (0 Bft) SO 135 17,8 C 21,8 C
06.07.2012 23:26 21,8 C 78 % 1012,4 hPa 0,0 l/m 0,0 km/h (0 Bft) SO 135 17,8 C 21,8 C
06.07.2012 23:31 21,8 C 78 % 1012,6 hPa 0,0 l/m 0,0 km/h (0 Bft) SO 135 17,8 C 21,8 C
06.07.2012 23:36 21,8 C 78 % 1012,5 hPa 0,0 l/m 0,0 km/h (0 Bft) SO 135 17,8 C 21,8 C
06.07.2012 23:41 21,8 C 78 % 1012,6 hPa 0,0 l/m 0,0 km/h (0 Bft) SO 135 17,8 C 21,8 C
06.07.2012 23:46 21,8 C 78 % 1012,4 hPa 0,0 l/m 0,0 km/h (0 Bft) SO 135 17,8 C 21,8 C
06.07.2012 23:51 21,8 C 78 % 1012,5 hPa 0,0 l/m 0,0 km/h (0 Bft) SO 135 17,8 C 21,8 C
06.07.2012 23:56 21,8 C 78 % 1012,6 hPa 0,0 l/m 0,0 km/h (0 Bft) SO 135 17,8 C 21,8 C
_ Min-Zeit 05:56 17:01 06:41 - 00:41 - - 17:16 05:56
Minimum _ 18,8 C 53 % 1008,8 hPa - 0,0 km/h (0 Bft) - - 16,2 C 18,8 C
_ Max-Zeit 15:41 05:26 22:11 00:01 17:01 - - 14:16 15:41
Maximum _ 29,5 C 89 % 1013,1 hPa 0,0 l/m 25,2 km/h
W-NW (4 Bft)
- - 20,3 C 29,5 C
Durchschnitt _ 22,7 C 76 % 1010,6 hPa #0,0 l/m 3,7 km/h (1 Bft) NO - 18,1 C 22,7 C
(c) by David Heller